Wind_Speed
19 20 20 20 20 21 21 20 20 21 21 20 18 17 18 19 17 17 18 18 19 20 21 21 22 24 25 27 28 29 30 31 32 33 35 36 38 40 42 44 45 47 48 49
21 21 22 21 22 22 22 22 22 23 24 23 22 20 21 21 20 20 20 21 22 22 23 24 25 27 28 30 31 32 34 35 36 36 38 39 41 42 44 46 47 49 50 51
22 22 23 23 23 24 24 25 25 25 26 26 26 22 22 24 23 22 23 23 24 25 26 27 28 29 31 32 34 35 36 37 38 39 40 41 43 45 47 48 49 51 52 53
23 23 24 24 24 26 25 26 27 28 28 28 29 27 19 26 24 23 24 25 26 27 28 29 31 32 34 35 37 38 39 40 41 42 43 44 46 47 49 50 52 53 54 55
23 23 24 24 25 27 27 28 29 29 30 30 29 32 22 25 25 25 27 28 28 30 30 32 33 35 36 38 39 41 42 42 44 45 46 47 48 49 51 52 54 54 56 57
23 23 24 24 26 28 29 30 31 31 32 31 30 33 29 25 27 28 29 30 31 32 33 34 36 37 39 41 42 43 44 45 46 47 48 49 50 52 53 54 56 56 57 58
22 23 25 26 27 28 30 32 34 35 33 33 32 33 29 27 28 30 31 32 34 35 36 37 39 40 42 43 44 46 47 47 48 49 50 51 52 53 54 56 57 57 58 59
23 23 25 27 28 29 30 32 35 38 38 36 34 34 29 28 29 31 33 34 36 37 39 40 42 44 45 46 47 48 49 50 50 51 52 53 54 55 56 58 59 59 60 61
27 25 26 28 29 31 32 32 34 39 41 40 37 35 31 28 27 29 32 35 37 40 42 44 46 48 49 49 49 51 51 52 53 53 54 55 55 57 58 59 60 60 61 62
30 29 27 28 30 32 34 35 36 38 43 44 41 36 32 30 30 30 32 36 39 42 45 48 50 52 52 52 52 53 53 53 54 55 56 56 57 59 60 60 60 61 62 64
34 33 31 30 31 33 34 35 37 39 42 45 47 41 35 36 34 35 36 39 43 46 48 50 53 54 55 54 54 54 54 55 56 57 57 58 59 60 61 61 61 63 64 65
35 37 35 33 33 34 36 37 38 40 43 45 49 47 38 38 39 40 41 42 44 47 50 52 53 54 55 55 55 55 55 56 57 58 59 59 60 61 62 62 63 65 66 67
38 40 40 38 36 37 39 39 40 42 44 45 48 49 43 45 45 45 46 47 47 48 50 51 53 53 54 55 55 55 56 56 57 58 59 60 61 62 63 64 65 66 67 67
42 43 43 43 41 42 43 42 42 43 45 48 49 51 47 48 50 51 50 50 51 51 52 52 53 54 54 55 55 55 56 57 58 59 59 60 62 64 64 65 66 67 67 68
45 47 46 46 45 46 48 46 44 45 46 50 51 52 52 53 55 55 56 56 55 55 55 55 55 54 55 55 56 56 56 57 59 59 60 62 64 65 66 67 67 67 67 67
48 51 51 51 49 51 53 48 46 47 48 50 53 54 53 56 57 58 59 59 59 58 57 57 57 57 56 57 57 57 58 59 60 61 62 64 66 66 67 67 67 67 66 66
50 52 54 55 53 56 55 49 50 50 51 52 55 56 58 58 59 60 60 60 60 59 59 58 58 58 58 59 59 60 61 62 63 64 65 65 66 67 67 66 66 65 64 63
50 52 54 56 56 58 54 52 52 54 53 54 56 58 60 60 60 61 61 61 60 60 59 59 59 59 60 61 62 62 63 64 65 65 66 66 66 65 65 64 63 62 60 60
47 49 53 56 57 57 54 52 54 56 55 54 57 58 59 59 58 59 60 61 61 61 61 61 61 61 60 60 61 62 62 63 64 65 64 64 63 63 62 60 59 58 57 58
44 46 49 51 54 55 52 52 53 53 54 54 56 57 57 57 58 57 57 59 60 60 61 61 61 60 58 58 60 60 61 61 61 61 61 60 59 59 58 57 56 56 56 56
43 45 47 49 51 51 50 51 52 53 54 54 55 56 56 56 56 55 55 55 56 56 56 57 57 56 56 56 56 56 56 57 58 58 58 57 56 56 54 53 53 54 54 54
42 44 45 47 49 49 49 50 50 51 52 53 54 54 54 53 52 52 52 52 51 50 51 52 54 54 53 54 54 54 53 53 53 53 53 52 52 52 51 51 51 51 51 51
42 43 44 46 46 46 48 49 49 50 51 50 51 50 50 49 49 49 49 47 46 46 47 48 49 49 50 51 51 51 51 50 49 49 49 50 50 49 49 49 50 50 49 49
43 43 44 46 45 45 47 47 47 48 48 48 49 48 48 48 47 46 44 43 43 43 44 44 44 45 45 47 48 50 49 49 49 49 49 49 49 48 49 49 49 49 48 48
44 45 46 47 46 47 46 47 48 48 48 48 47 46 46 45 43 42 42 42 42 42 43 43 44 45 45 45 47 48 49 50 50 51 51 51 50 50 50 49 49 48 48 48
42 45 49 49 49 51 49 49 49 48 47 46 45 44 44 43 42 42 42 43 43 43 44 43 44 45 46 48 49 50 51 51 52 52 52 52 52 51 51 50 50 50 49 48
Wind_Direction
281 284 286 292 294 293 292 291 289 287 286 283 280 277 277 280 279 279 280 283 285 286 289 291 293 295 297 300 303 305 307 309 312 314 316 317 318 320 322 323 323 322 321 320
278 280 284 287 290 292 292 290 289 287 286 284 282 280 277 278 279 279 281 283 284 286 288 289 291 293 296 298 301 303 305 307 309 311 313 315 316 317 319 321 321 321 320 320
276 278 281 285 288 290 293 293 290 288 286 285 284 281 278 278 279 281 283 283 284 286 287 289 291 292 294 296 299 302 304 305 307 309 311 313 315 316 317 319 319 320 320 319
275 276 279 284 288 290 293 292 292 290 288 288 288 286 278 281 284 284 283 282 283 285 286 288 289 291 293 295 298 300 302 304 306 308 310 311 313 315 316 318 318 318 319 319
278 278 281 285 288 291 294 293 293 292 291 291 291 289 287 283 284 282 281 282 283 284 286 287 289 290 292 294 296 298 300 302 304 306 308 310 311 313 315 316 317 317 318 318
281 282 284 286 288 292 294 295 295 294 294 294 293 291 294 289 284 282 282 283 282 283 285 286 288 290 292 293 295 296 298 300 301 304 306 308 310 312 313 315 316 316 317 317
283 286 288 290 291 293 296 297 298 296 296 297 296 295 301 299 290 285 282 281 281 283 284 285 286 288 290 291 293 295 297 298 299 302 304 306 308 310 312 313 315 315 316 316
285 286 289 291 293 294 296 297 299 299 299 298 299 301 307 305 296 289 285 282 282 282 282 283 284 286 288 289 291 293 295 297 298 300 302 305 307 309 311 312 314 314 315 315
289 288 290 293 294 295 296 296 297 298 298 299 300 303 306 308 302 295 289 284 282 281 280 281 282 285 286 288 290 292 294 295 297 298 300 303 306 308 309 311 312 313 314 315
289 289 290 292 293 294 295 297 298 297 298 299 300 303 311 312 306 297 289 284 281 279 279 281 283 284 286 288 290 292 293 294 295 297 299 302 304 306 308 309 311 312 313 314
288 289 290 290 290 292 293 294 294 295 296 298 299 302 312 307 302 295 288 284 282 281 281 282 284 286 288 289 290 291 292 293 294 296 299 301 303 305 306 308 310 311 312 314
287 289 290 290 291 291 291 291 292 294 294 296 297 300 308 303 299 294 291 288 287 286 286 287 288 289 289 290 290 291 292 293 294 295 297 300 302 303 305 307 309 311 312 313
287 288 289 289 290 289 289 290 291 292 293 294 295 298 303 302 299 296 295 293 292 291 290 290 291 291 291 291 291 291 291 292 293 295 297 299 300 302 304 306 308 310 311 313
285 286 288 290 291 289 289 289 290 292 293 293 293 295 295 297 295 295 295 295 294 294 294 294 294 294 293 293 292 291 291 292 293 295 296 298 299 301 304 306 307 309 310 313
285 285 286 287 288 287 287 288 291 293 293 293 294 294 297 296 295 296 296 296 297 296 296 296 296 296 295 294 293 292 292 292 293 294 296 297 299 301 303 305 307 309 310 312
284 286 286 286 287 286 286 290 292 291 292 292 292 293 294 293 294 295 296 297 298 298 298 298 298 298 297 296 295 293 293 293 293 294 295 297 299 302 304 306 307 309 310 312
284 285 286 287 286 286 287 290 289 289 289 290 291 292 292 292 293 294 296 297 299 299 300 300 300 299 298 297 296 295 294 294 295 296 297 298 300 302 304 305 307 309 310 312
288 289 289 290 290 289 293 293 293 291 290 291 291 291 291 293 295 296 297 299 300 301 301 301 301 300 298 297 296 295 295 295 296 297 298 299 301 302 303 305 308 309 311 313
289 290 290 291 292 294 296 297 294 293 293 293 292 292 293 294 295 296 298 299 300 301 301 301 300 299 299 298 297 297 297 297 297 297 299 300 301 303 304 306 308 309 311 312
293 291 291 292 293 296 300 298 296 295 295 295 294 294 295 296 297 299 298 298 299 299 299 299 299 300 300 299 298 299 299 298 298 299 299 300 301 303 305 307 309 310 311 312
300 298 298 297 297 300 302 299 298 297 298 296 296 295 296 297 300 303 303 303 301 299 299 299 300 301 301 300 301 302 302 301 301 301 302 302 303 304 305 307 309 310 311 312
302 302 301 300 301 303 301 300 299 298 297 296 296 296 298 300 302 303 304 304 303 302 302 302 301 301 302 302 303 305 305 305 305 305 305 305 305 305 306 308 309 311 312 312
301 303 302 302 304 304 302 301 300 299 299 299 299 299 299 300 302 303 304 305 305 304 304 305 304 304 304 303 304 306 306 306 307 308 309 308 308 308 308 308 309 311 312 313
299 300 300 301 304 302 301 301 301 301 300 301 301 301 300 301 303 304 306 307 308 308 309 309 309 309 308 307 306 307 307 308 308 308 309 309 309 309 309 309 310 311 312 313
301 299 298 298 299 298 300 300 299 299 300 300 300 299 300 301 303 305 306 306 307 309 310 310 311 310 310 309 308 308 308 307 308 308 308 307 307 307 308 308 309 311 311 312
298 296 295 296 297 297 299 299 299 299 299 299 299 299 299 300 301 303 304 306 306 307 309 310 311 310 309 308 308 308 307 307 307 307 307 306 306 306 306 307 308 309 310 311
Height
5862 5862 5860 5858 5856 5855 5853 5851 5850 5848 5846 5845 5844 5844 5843 5841 5840 5839 5837 5836 5834 5832 5830 5828 5826 5824 5821 5818 5815 5811 5807 5803 5798 5794 5789 5784 5779 5773 5767 5761 5754 5747 5740 5733
5859 5858 5856 5854 5852 5851 5849 5847 5846 5844 5841 5840 5840 5840 5839 5837 5836 5835 5833 5831 5830 5828 5826 5823 5821 5818 5815 5812 5809 5805 5800 5796 5791 5787 5782 5777 5771 5765 5759 5752 5745 5738 5730 5723
5855 5854 5852 5850 5848 5846 5845 5842 5841 5839 5837 5835 5835 5837 5835 5833 5831 5830 5829 5826 5824 5822 5820 5817 5815 5812 5809 5805 5802 5798 5793 5788 5783 5779 5774 5768 5762 5756 5749 5743 5735 5728 5720 5712
5850 5849 5848 5846 5844 5841 5840 5838 5836 5833 5832 5831 5830 5829 5833 5828 5827 5825 5823 5821 5818 5816 5813 5811 5808 5805 5802 5798 5794 5790 5785 5780 5775 5770 5765 5759 5753 5747 5740 5733 5726 5718 5710 5701
5846 5845 5843 5842 5840 5837 5835 5833 5831 5828 5826 5826 5825 5821 5828 5825 5822 5820 5817 5814 5812 5809 5806 5804 5800 5797 5794 5790 5786 5781 5777 5772 5766 5761 5756 5750 5744 5737 5730 5723 5715 5707 5699 5690
5841 5840 5839 5837 5835 5833 5830 5828 5825 5823 5821 5821 5819 5816 5819 5819 5816 5813 5810 5808 5805 5802 5799 5796 5792 5789 5785 5781 5777 5772 5768 5763 5757 5752 5746 5740 5734 5727 5720 5712 5704 5696 5688 5679
5838 5836 5834 5832 5831 5828 5826 5823 5819 5816 5815 5815 5812 5810 5813 5812 5808 5805 5803 5800 5796 5794 5791 5787 5783 5780 5776 5771 5767 5762 5758 5753 5747 5742 5736 5729 5723 5716 5708 5701 5693 5684 5676 5667
5833 5833 5830 5828 5826 5823 5821 5818 5814 5809 5807 5806 5805 5804 5807 5804 5800 5796 5793 5790 5787 5784 5780 5777 5773 5769 5765 5761 5757 5752 5747 5742 5736 5730 5725 5718 5712 5704 5697 5689 5681 5673 5664 5655
5827 5828 5826 5823 5820 5818 5815 5812 5809 5804 5799 5798 5798 5798 5800 5797 5792 5788 5784 5780 5777 5773 5769 5765 5762 5758 5754 5750 5746 5741 5735 5730 5725 5719 5713 5707 5700 5693 5685 5678 5670 5661 5652 5643
5820 5821 5821 5818 5815 5812 5809 5806 5803 5797 5792 5788 5788 5790 5791 5787 5783 5780 5775 5770 5765 5762 5757 5753 5749 5745 5742 5738 5734 5729 5723 5718 5713 5707 5701 5695 5688 5681 5673 5666 5657 5649 5640 5631
5814 5813 5814 5812 5809 5806 5803 5800 5795 5790 5787 5781 5776 5782 5784 5777 5772 5768 5764 5759 5755 5751 5746 5742 5738 5734 5730 5726 5721 5716 5711 5706 5700 5694 5689 5683 5676 5668 5661 5653 5645 5636 5627 5618
5807 5805 5805 5805 5802 5799 5795 5792 5788 5785 5781 5775 5768 5771 5774 5767 5761 5756 5753 5749 5744 5740 5736 5732 5727 5723 5718 5713 5709 5704 5699 5693 5688 5682 5676 5670 5663 5655 5648 5640 5632 5624 5615 5605
5800 5798 5796 5796 5797 5791 5787 5784 5780 5776 5772 5767 5761 5762 5762 5755 5749 5745 5741 5737 5733 5729 5725 5720 5715 5711 5706 5701 5696 5691 5686 5680 5674 5669 5663 5656 5649 5642 5635 5627 5619 5611 5601 5592
5791 5790 5788 5786 5784 5780 5777 5775 5771 5767 5763 5757 5754 5750 5751 5744 5737 5734 5730 5725 5721 5717 5712 5708 5703 5699 5694 5689 5683 5678 5672 5666 5661 5655 5649 5643 5635 5628 5622 5614 5606 5597 5588 5579
5782 5780 5778 5776 5774 5770 5766 5765 5763 5758 5753 5747 5744 5739 5737 5730 5724 5721 5716 5712 5708 5704 5700 5695 5691 5686 5680 5675 5670 5664 5659 5653 5647 5641 5635 5628 5621 5615 5608 5600 5592 5583 5574 5565
5772 5768 5766 5765 5764 5758 5754 5756 5753 5747 5742 5737 5732 5729 5726 5718 5714 5709 5704 5699 5695 5691 5687 5682 5677 5672 5667 5661 5656 5650 5645 5638 5632 5627 5620 5614 5607 5600 5593 5585 5577 5569 5561 5552
5762 5758 5754 5750 5750 5745 5743 5747 5742 5737 5732 5726 5720 5717 5711 5707 5702 5697 5692 5687 5683 5678 5673 5668 5663 5658 5653 5647 5641 5636 5630 5624 5618 5612 5605 5598 5592 5585 5578 5571 5563 5555 5547 5538
5749 5746 5741 5737 5735 5729 5735 5732 5728 5722 5719 5714 5708 5702 5698 5693 5689 5683 5678 5674 5669 5664 5659 5654 5649 5643 5638 5632 5626 5620 5615 5609 5602 5596 5590 5583 5577 5571 5564 5556 5549 5541 5533 5525
5740 5735 5730 5725 5719 5715 5719 5719 5712 5705 5703 5700 5693 5688 5684 5680 5676 5671 5665 5660 5654 5649 5644 5639 5634 5628 5623 5617 5610 5605 5599 5593 5586 5580 5575 5569 5562 5556 5549 5542 5535 5528 5520 5512
5730 5725 5721 5715 5708 5704 5709 5703 5696 5692 5689 5685 5678 5673 5669 5664 5661 5660 5655 5648 5643 5637 5631 5624 5619 5613 5608 5601 5595 5589 5583 5577 5571 5565 5559 5553 5547 5541 5535 5529 5522 5515 5507 5500
5717 5713 5709 5703 5696 5694 5695 5689 5683 5680 5677 5670 5664 5659 5655 5650 5646 5643 5639 5634 5629 5623 5617 5610 5604 5599 5593 5586 5580 5574 5569 5563 5557 5551 5545 5539 5533 5527 5521 5515 5509 5502 5495 5488
5706 5702 5698 5692 5687 5686 5681 5676 5671 5666 5662 5656 5651 5646 5641 5637 5633 5629 5624 5619 5613 5607 5602 5596 5590 5585 5580 5572 5566 5561 5555 5549 5544 5538 5532 5526 5520 5514 5508 5502 5496 5489 5482 5475
5697 5693 5687 5683 5681 5676 5669 5663 5658 5653 5649 5644 5638 5634 5629 5625 5621 5616 5612 5606 5600 5594 5588 5582 5576 5571 5566 5559 5553 5548 5543 5537 5531 5526 5520 5514 5508 5502 5495 5490 5483 5477 5470 5463
5688 5683 5677 5672 5671 5665 5659 5653 5648 5642 5637 5632 5627 5622 5618 5613 5608 5604 5599 5594 5588 5582 5576 5570 5564 5559 5553 5547 5541 5535 5530 5525 5519 5514 5508 5502 5496 5490 5484 5477 5471 5465 5458 5451
5677 5671 5665 5661 5658 5654 5650 5643 5637 5632 5626 5621 5616 5611 5606 5602 5597 5592 5587 5582 5577 5571 5565 5559 5553 5547 5542 5536 5530 5524 5519 5513 5508 5502 5496 5489 5483 5477 5471 5465 5459 5452 5446 5439
5666 5658 5652 5649 5645 5639 5637 5631 5626 5620 5615 5610 5605 5601 5595 5590 5586 5581 5576 5570 5565 5560 5554 5549 5543 5537 5531 5525 5519 5513 5507 5501 5495 5489 5483 5476 5470 5464 5458 5452 5446 5440 5434 5427